Location: Malvern Link
(52.1333°N, 2.3000°W)
Time: 03:41:49
(UTC+00:00)

SPOT 3 Rocket - Pass Details

Date: 18 September 2020
Orbit: 779 x 794 km, 98.8° (Epoch: 22 October)

Event Time Altitude Azimuth Distance (km) Brightness Sun altitude
Exits shadow 20:03:39 22° 149° (SSE) 1,651 4.7 -16.8°
Maximum altitude 20:06:59 70° 70° (ENE) 833 3.5 -17.2°
Drops below altitude 10° 20:12:08 10° 348° (NNW) 2,347 6.5 -17.9°
Sets 20:14:28 0° 346° (NNW) 3,281 7.4 -18.2°
